TimeEDT,TemperatureF,Dew PointF,Humidity,Sea Level PressureIn,VisibilityMPH,Wind Direction,Wind SpeedMPH,Gust SpeedMPH,PrecipitationIn,Events,Conditions,WindDirDegrees,DateUTC
12:07 AM,48.2,46.4,93,29.92,3.0,Calm,Calm,-,N/A,,Clear,0,2012-10-01 04:07:00
12:24 AM,46.4,46.4,100,29.92,1.5,Calm,Calm,-,N/A,,Clear,0,2012-10-01 04:24:00
12:33 AM,46.4,46.4,100,29.92,0.8,Calm,Calm,-,N/A,,Clear,0,2012-10-01 04:33:00
12:53 AM,46.9,45.0,93,29.92,0.8,Calm,Calm,-,N/A,,Clear,0,2012-10-01 04:53:00
12:58 AM,48.2,46.4,93,29.92,2.0,Calm,Calm,-,N/A,,Clear,0,2012-10-01 04:58:00
1:12 AM,46.4,46.4,100,29.92,1.2,Calm,Calm,-,N/A,,Clear,0,2012-10-01 05:12:00
1:20 AM,46.4,44.6,93,29.92,0.5,Calm,Calm,-,N/A,Fog,Fog,0,2012-10-01 05:20:00
1:36 AM,46.4,44.6,93,29.92,0.2,Calm,Calm,-,N/A,Fog,Fog,0,2012-10-01 05:36:00
1:53 AM,45.0,44.1,97,29.92,0.2,Calm,Calm,-,N/A,Fog,Fog,0,2012-10-01 05:53:00
2:53 AM,44.1,42.1,93,29.93,0.2,Calm,Calm,-,N/A,Fog,Fog,0,2012-10-01 06:53:00
3:08 AM,42.8,42.8,100,29.93,0.5,Calm,Calm,-,N/A,Fog,Fog,0,2012-10-01 07:08:00
3:51 AM,44.6,42.8,93,29.92,0.2,Calm,Calm,-,N/A,Fog,Fog,0,2012-10-01 07:51:00
3:53 AM,44.1,43.0,96,29.93,0.2,Calm,Calm,-,N/A,Fog,Fog,0,2012-10-01 07:53:00
4:53 AM,43.0,41.0,93,29.94,0.2,Calm,Calm,-,N/A,Fog,Fog,0,2012-10-01 08:53:00
6:53 AM,45.0,44.1,97,29.96,0.2,Calm,Calm,-,N/A,Fog,Fog,0,2012-10-01 10:53:00
8:11 AM,44.6,44.6,100,29.96,0.2,Calm,Calm,-,N/A,Fog,Fog,0,2012-10-01 12:11:00
8:53 AM,46.0,45.0,96,29.98,0.2,Calm,Calm,-,N/A,Fog,Fog,0,2012-10-01 12:53:00
9:53 AM,48.9,48.0,97,29.99,0.5,Calm,Calm,-,N/A,Fog,Fog,0,2012-10-01 13:53:00
10:19 AM,50.0,48.2,94,29.99,3.0,Calm,Calm,-,N/A,,Overcast,0,2012-10-01 14:19:00
10:53 AM,51.1,48.9,92,29.99,8.0,SSE,4.6,-,N/A,,Mostly Cloudy,150,2012-10-01 14:53:00
11:35 AM,55.4,50.0,82,29.98,10.0,Calm,Calm,-,N/A,,Scattered Clouds,0,2012-10-01 15:35:00
11:53 AM,57.9,50.0,75,29.99,10.0,Calm,Calm,-,N/A,,Clear,0,2012-10-01 15:53:00
12:53 PM,63.0,48.0,58,29.96,10.0,NE,3.5,-,N/A,,Clear,40,2012-10-01 16:53:00
1:53 PM,66.0,46.9,50,29.95,10.0,Calm,Calm,-,N/A,,Clear,0,2012-10-01 17:53:00
2:53 PM,66.9,48.0,51,29.94,10.0,Variable,3.5,-,N/A,,Clear,0,2012-10-01 18:53:00
3:53 PM,66.9,50.0,54,29.92,10.0,East,3.5,-,N/A,,Overcast,100,2012-10-01 19:53:00
4:53 PM,66.0,50.0,56,29.92,10.0,Calm,Calm,-,N/A,,Overcast,0,2012-10-01 20:53:00
6:53 PM,61.0,53.1,75,29.97,10.0,South,11.5,19.6,N/A,,Overcast,190,2012-10-01 22:53:00
7:53 PM,59.0,55.0,87,29.95,10.0,Calm,Calm,-,N/A,,Overcast,0,2012-10-01 23:53:00
8:53 PM,57.9,55.9,93,29.95,8.0,Calm,Calm,-,0.02,,Mostly Cloudy,0,2012-10-02 00:53:00
9:53 PM,57.9,55.9,93,29.94,5.0,Calm,Calm,-,N/A,,Overcast,0,2012-10-02 01:53:00
10:53 PM,57.9,55.9,93,29.96,6.0,Calm,Calm,-,N/A,,Overcast,0,2012-10-02 02:53:00
11:53 PM,57.9,55.9,93,29.95,6.0,Calm,Calm,-,0.00,,Overcast,0,2012-10-02 03:53:00